Weather History for Managua, Nicaragua

Change the Weather History Date:

Wednesday, March 27, 2013

  Actual Average Record
Temperature  
Mean Temperature 88 °F -  
Max Temperature 96 °F 93 °F 96 °F (2002)
Min Temperature 80 °F 73 °F 68 °F (1997)
Cooling Degree Days 23    
Growing Degree Days 38 (Base 50)    
Moisture  
Dew Point 67 °F    
Average Humidity 55    
Maximum Humidity 70    
Minimum Humidity 30    
Precipitation  
Precipitation 0.00 in - - ()
Sea Level Pressure  
Sea Level Pressure 29.89 in    
Wind  
Wind Speed 12 mph ()    
Max Wind Speed 18 mph    
Max Gust Speed -    
Visibility 5.8 miles    
Events      
Averages and records for this station are not official NWS values.
T = Trace of Precipitation, MM = Missing Value Source: Averaged Metar Reports

Daily Weather History Graph

Daily Weather History Graph

Search for Another Location

Airport:

Trip Planner

Search our weather history database for the weather conditions in past years. The results will help you decide how hot, cold, wet, or windy it might be!

Date:

Astronomy

Mar. 27, 2013 Rise Set
Actual Time 5:44 AM CST 5:55 PM CST
Civil Twilight 5:22 AM CST 6:16 PM CST
Nautical Twilight 4:58 AM CST 6:41 PM CST
Astronomical Twilight 4:33 AM CST 7:06 PM CST
Moon 6:23 PM CST (3/27) 5:43 AM CST (3/27)
Length of Visible Light 12h 53m
Length of Day
12h 11m
Full, 100% of the Moon is Illuminated
Mar 27
Full
Apr 2
Last Quarter
Apr 10
New
Apr 18
First Quarter
Apr 25
Full

Hourly Weather History & Observations

Time (CST) Temp. Heat Index Dew Point Humidity Pressure Visibility Wind Dir Wind Speed Gust Speed Precip Events Conditions
12:00 AM 82.4 °F 85.4 °F 68.0 °F 62% 29.89 in 5.6 mi East 16.1 mph - N/A   Partly Cloudy
12:45 AM 82.4 °F 85.4 °F 68.0 °F 62% 29.89 in 5.6 mi East 16.1 mph - N/A   Partly Cloudy
1:00 AM 82.4 °F 87.2 °F 71.6 °F 70% 29.86 in 5.6 mi East 13.8 mph - N/A   Partly Cloudy
2:00 AM - - - N/A% 29.87 in 5.0 mi East 11.5 mph - N/A   Scattered Clouds
3:00 AM 82.4 °F 86.3 °F 69.8 °F 66% 29.86 in 5.0 mi East 9.2 mph - N/A   Scattered Clouds
4:00 AM 82.4 °F 85.4 °F 68.0 °F 62% 29.86 in 5.0 mi East 9.2 mph - N/A   Scattered Clouds
5:00 AM 80.6 °F 83.2 °F 68.0 °F 65% 29.89 in 5.6 mi East 9.2 mph - N/A   Scattered Clouds
6:00 AM 80.6 °F 83.2 °F 68.0 °F 65% 29.89 in 6.2 mi East 9.2 mph - N/A   Scattered Clouds
7:00 AM 82.4 °F 85.4 °F 68.0 °F 62% 29.92 in 5.6 mi East 6.9 mph - N/A   Partly Cloudy
8:00 AM 82.4 °F 84.6 °F 66.2 °F 58% 29.95 in 5.6 mi ENE 11.5 mph - N/A   Partly Cloudy
9:00 AM 86.0 °F 87.3 °F 64.4 °F 48% 29.95 in 5.6 mi ENE 11.5 mph - N/A   Partly Cloudy
10:00 AM 89.6 °F 91.1 °F 64.4 °F 43% 29.95 in 6.2 mi ENE 16.1 mph - N/A   Partly Cloudy
11:00 AM 91.4 °F 93.2 °F 64.4 °F 41% 29.92 in 5.6 mi ENE 18.4 mph - N/A   Partly Cloudy
12:00 PM 93.2 °F 93.3 °F 60.8 °F 34% 29.92 in 5.6 mi NE 18.4 mph - N/A   Partly Cloudy
1:00 PM 95.0 °F 95.2 °F 60.8 °F 32% 29.86 in 5.6 mi NE 16.1 mph - N/A   Partly Cloudy
3:00 PM 96.8 °F 97.1 °F 60.8 °F 30% 29.80 in 6.2 mi NE 13.8 mph - N/A   Partly Cloudy
4:00 PM 95.0 °F 97.0 °F 64.4 °F 36% 29.77 in 6.2 mi ENE 11.5 mph - N/A   Scattered Clouds
5:00 PM 91.4 °F 95.4 °F 68.0 °F 46% 29.80 in 5.6 mi East 16.1 mph - N/A   Scattered Clouds
6:00 PM 87.8 °F 91.4 °F 68.0 °F 52% 29.83 in 6.2 mi ENE 16.1 mph - N/A   Scattered Clouds
8:00 PM 84.2 °F 88.4 °F 69.8 °F 62% 29.92 in 6.2 mi NE 16.1 mph - N/A   Mostly Cloudy
9:00 PM 80.6 °F 83.9 °F 69.8 °F 70% 29.95 in 6.2 mi East 11.5 mph - N/A   Partly Cloudy
10:00 PM 80.6 °F 83.9 °F 69.8 °F 70% 29.95 in 6.2 mi East 11.5 mph - N/A   Partly Cloudy
11:00 PM 80.6 °F 83.9 °F 69.8 °F 70% 29.95 in 6.2 mi East 13.8 mph - N/A   Partly Cloudy